Location: ???????????
(54.6970°N, 39.1477°E)
Time: 15:09:53
(UTC+00:00)

BREEZE-M DEB (TANK) - Pass Details

Date: 19 May 2025
Orbit: 282 x 12172 km, 49.5° (Epoch: 20 June)

Event Time Altitude Azimuth Distance (km) Brightness Sun altitude
Rises 20:48:17 0° 284° (WNW) 7,842 8.5 -15.0°
Reaches altitude 10° 20:55:45 10° 280° (W) 5,010 7.4 -15.2°
Maximum altitude 21:05:13 36° 219° (SW) 1,426 4.0 -15.3°
Enters shadow 21:07:05 25° 174° (S) 1,392 3.7 -15.3°
